[[{"header":{"parameterUnit":"m.s-1","parameterCategory":1,"la1":30.2991,"la2":30.254,"lo1":-89.0895,"lo2":-89.0444,"dy":0.0017,"dx":0.0017,"nx":28,"ny":28,"refTime":"2023-08-02T03:00:00:Z","depth":0,"parameterNumber":2,"parameterNumberName":"U-component_of_WINDS"},"data":[0,0,0,0,0,0,0,0,0,0,0,0,0,0,0,0,0,0,0,0,0,0,0,0,0,0,0,0,0,0,0,0,0,0,0,0,0,0,0,0,0,0,0,0,0,0,0,0,0,0,0,0,0,0,0,0,0,0,1.8293,1.8293,0,1.8296,1.8296,1.8296,1.8239,1.8237,1.8236,1.8234,1.8237,1.8239,1.824,0,0,0,0,0,0,0,0,0,0,0,0,0,1.8237,1.8238,1.8293,1.8293,1.8293,1.8296,1.8296,1.8296,1.8239,1.8237,1.8235,1.8233,1.8237,1.8239,1.8241,0,0,0,0,0,0,0,0,0,0,0,0,0,1.8253,1.8238,1.8293,1.8265,1.8262,1.8296,1.8296,1.8296,1.8239,1.8237,1.8235,1.8232,1.8236,1.8239,1.8241,1.8302,0,0,1.8248,1.8249,0,0,0,0,0,0,0,0,1.8252,1.8255,1.8269,1.8267,1.8264,1.8265,1.8277,1.8298,1.824,1.8248,1.8234,1.8231,1.8248,1.825,1.8255,1.8302,1.8302,1.8248,1.8249,1.825,1.8251,0,0,0,0,0,0,0,1.8251,1.8254,1.8294,1.8269,1.8266,1.8252,1.8251,1.8281,1.8261,1.8247,1.8243,1.8244,1.8247,1.8253,1.8255,1.8302,1.8248,1.825,1.8251,1.8252,1.8396,1.8398,0,0,0,0,0,0,1.8254,1.8254,1.8294,1.8294,1.8252,1.8255,1.8254,1.8267,1.8261,1.8258,1.8246,1.8241,1.825,1.8252,1.8255,1.8323,1.825,1.8253,1.8254,1.8393,1.8396,1.8399,0,0,0,0,0,0,1.8253,1.8258,1.8294,1.8273,1.8276,1.8258,1.8273,1.8268,1.8274,1.826,1.8256,1.8257,1.8249,1.8252,1.829,1.8323,1.8254,1.8256,1.839,1.8394,1.8397,1.8462,0,0,0,0,0,0,1.8251,1.8258,1.8281,1.8274,1.8278,1.8329,1.8275,1.827,1.8279,1.8273,1.8269,1.8266,1.8247,1.8287,1.8292,1.8325,1.8257,1.8387,1.8392,1.8396,1.8457,1.8468,1.8477,0,0,0,0,0,1.8249,1.83,1.8283,1.8288,1.8307,1.8332,1.8334,1.8311,1.8282,1.8304,1.8295,1.8266,1.8319,1.8291,1.8297,1.833,1.8385,1.8391,1.8396,1.8453,1.8466,1.8477,0,0,0,0,0,0,1.8312,1.8298,1.8279,1.8329,1.8332,1.8322,1.835,1.8326,1.8337,1.8331,1.8302,1.8302,1.8344,1.8341,1.8311,1.8387,1.8346,1.8353,1.8388,1.84,1.841,1.8409,1.8259,0,0,0,0,0,1.8332,1.8353,1.834,1.8385,1.8387,1.8369,1.8379,1.8361,1.8363,1.8364,1.8357,1.836,1.8376,1.8388,1.8403,1.8457,1.8454,1.8483,1.8493,1.8501,1.8506,1.8532,1.8544,1.8417,1.8417,1.8417,0,0,1.8372,1.8367,1.8383,1.8398,1.8398,1.842,1.837,1.8396,1.8412,1.8368,1.8402,1.8398,1.8399,1.8444,1.8464,1.8443,1.8541,1.8508,1.8514,1.8515,1.8539,1.8551,1.8562,1.842,1.842,1.8419,0,0,1.8457,1.8457,1.8493,1.8493,1.8494,1.8481,1.8489,1.8483,1.8478,1.8512,1.8479,1.8497,1.8528,1.8529,1.8534,1.8617,1.8591,1.8623,1.8674,1.8699,1.8709,1.8718,1.8746,1.8756,1.8629,1.863,1.863,0,1.8508,1.854,1.8515,1.8542,1.8549,1.8509,1.8544,1.8547,1.8552,1.8557,1.8534,1.857,1.8568,1.8612,1.8632,1.8638,1.8646,1.8623,1.871,1.8719,1.8726,1.8752,1.8763,1.8633,1.8633,1.8633,1.8632,0,1.86,1.8623,1.8652,1.8657,1.8667,1.8699,1.8678,1.8691,1.8672,1.8661,1.8696,1.8692,1.8705,1.8714,1.8697,1.8755,1.8742,1.8715,1.8673,1.8743,1.8766,1.8776,1.8639,1.8637,1.8636,1.8635,0,0,1.8725,1.8715,1.8726,1.8726,1.8723,1.874,1.8769,1.8781,1.8791,1.8797,1.8819,1.8845,1.8819,1.8825,1.8807,1.883,1.8893,1.8799,1.8799,1.8815,1.8955,1.8974,1.8986,1.8876,1.8878,1.8879,1.8954,0,1.8806,1.8855,1.8832,1.8883,1.8902,1.8864,1.8889,1.889,1.888,1.8895,1.8885,1.8902,1.8868,1.8871,1.8892,1.8881,1.8921,1.8876,1.8896,1.8897,1.8894,1.8999,1.902,1.9091,1.8964,1.8965,1.8967,0,1.8907,1.8914,1.8967,1.8958,1.8965,1.8988,1.8996,1.9011,1.901,1.9001,1.9007,1.8983,1.901,1.8969,1.9005,1.8975,1.8982,1.8978,1.898,1.898,1.8935,1.9,1.9113,1.9123,1.8981,1.898,1.8979,0,1.8989,1.9013,1.9047,1.9049,1.904,1.9057,1.9054,1.9051,1.9058,1.9065,1.9069,1.908,1.9085,1.9093,1.9073,1.9045,1.9111,1.9069,1.9103,1.9104,1.9117,1.9117,1.9232,1.9125,1.9125,1.9125,1.9125,0,1.9081,1.9114,1.9083,1.9104,1.914,1.9113,1.9149,1.9142,1.9139,1.9157,1.9126,1.9144,1.9116,1.9131,1.9115,1.9146,1.9149,1.9142,1.9137,1.9144,1.9144,1.9147,1.9141,1.9128,1.9127,1.9127,1.9126,0,1.9179,1.916,1.9194,1.9182,1.918,1.9206,1.9196,1.9214,1.9202,1.9225,1.9229,1.921,1.9225,1.9206,1.922,1.9209,1.9251,1.924,1.9251,1.9247,1.9281,1.9278,1.94,1.9414,1.9301,1.9302,1.9303,0,1.9238,1.9262,1.9252,1.9261,1.926,1.9276,1.9283,1.9257,1.9266,1.9266,1.9284,1.9296,1.9305,1.9332,1.9319,1.9329,1.9316,1.9359,1.9318,1.9323,1.9314,1.9312,1.9314,1.9367,1.9368,1.9369,1.937,0,1.9343,1.9332,1.9343,1.9351,1.936,1.9365,1.9367,1.9377,1.935,1.9361,1.9376,1.9383,1.9396,1.9408,1.9415,1.9411,1.9386,1.9383,1.9391,1.9397,1.9402,1.9398,1.9271,1.938,1.9379,1.9378,1.9378,1.9377,1.9422,1.9441,1.9436,1.9449,1.9447,1.945,1.9466,1.9455,1.9467,1.9475,1.9459,1.9478,1.9475,1.948,1.948,1.9493,1.9475,1.9487,1.949,1.9493,1.9497,1.9401,1.9495,1.9494,1.9494,1.9494,1.9494,0,1.9524,1.9518,1.953,1.9534,1.9544,1.9518,1.9519,1.9529,1.9546,1.9545,1.9553,1.9569,1.9581,1.9569,1.9577,1.9591,1.9579,1.9594,1.9591,1.9591,1.9514,1.9505,1.9603,1.9603,1.9603,1.9603,1.9603,1.9603,1.9578,1.9607,1.9596,1.9624,1.9618,1.9635,1.9637,1.9639,1.9638,1.9657,1.9666,1.9657,1.9651,1.9659,1.9668,1.9664,1.9668,1.9687,1.9679,1.9607,1.9596,1.9586,1.9577,1.9688,1.9689,1.9754,1.9754,1.9755]},{"header":{"parameterUnit":"m.s-1","parameterCategory":1,"la1":30.2991,"la2":30.254,"lo1":-89.0895,"lo2":-89.0444,"dy":0.0017,"dx":0.0017,"nx":28,"ny":28,"refTime":"2023-08-02T03:00:00:Z","depth":0,"parameterNumber":3,"parameterNumberName":"V-component_of_WINDS"},"data":[0,0,0,0,0,0,0,0,0,0,0,0,0,0,0,0,0,0,0,0,0,0,0,0,0,0,0,0,0,0,0,0,0,0,0,0,0,0,0,0,0,0,0,0,0,0,0,0,0,0,0,0,0,0,0,0,0,0,0.1737,0.1738,0,0.1863,0.1864,0.1865,0.1933,0.1933,0.1933,0.1933,0.2064,0.2068,0.2071,0,0,0,0,0,0,0,0,0,0,0,0,0,0.1557,0.156,0.1737,0.1738,0.174,0.1862,0.1864,0.1866,0.1933,0.1933,0.1933,0.1933,0.2063,0.2067,0.2071,0,0,0,0,0,0,0,0,0,0,0,0,0,0.1654,0.1561,0.1737,0.1788,0.1794,0.1862,0.1864,0.1866,0.1933,0.1933,0.1933,0.1933,0.2062,0.2067,0.2072,0.2099,0,0,0.2087,0.209,0,0,0,0,0,0,0,0,0.1648,0.1661,0.1779,0.1785,0.1791,0.1882,0.1849,0.1945,0.1933,0.188,0.1933,0.1933,0.2004,0.2014,0.2037,0.2106,0.2111,0.2088,0.2091,0.2093,0.2095,0,0,0,0,0,0,0,0.1642,0.1656,0.1787,0.178,0.1788,0.1806,0.182,0.1867,0.1939,0.1885,0.189,0.1904,0.2007,0.2032,0.2041,0.2113,0.2088,0.2092,0.2095,0.2097,0.221,0.221,0,0,0,0,0,0,0.1626,0.1649,0.1783,0.179,0.1719,0.1809,0.1824,0.1853,0.1939,0.1952,0.1903,0.1906,0.2023,0.2035,0.2045,0.2083,0.2093,0.2098,0.2101,0.221,0.221,0.221,0,0,0,0,0,0,0.1622,0.1638,0.1778,0.1721,0.1741,0.1811,0.1843,0.1855,0.188,0.1953,0.1967,0.1915,0.2024,0.2038,0.2085,0.2089,0.21,0.2105,0.221,0.221,0.221,0.2158,0,0,0,0,0,0,0.1617,0.1636,0.1646,0.1721,0.1743,0.1815,0.1843,0.1857,0.1888,0.1893,0.1968,0.198,0.2025,0.2077,0.209,0.2096,0.2109,0.221,0.221,0.221,0.216,0.2157,0.2154,0,0,0,0,0,0.161,0.1628,0.1647,0.1662,0.1758,0.1815,0.1827,0.1878,0.1888,0.19,0.1947,0.1978,0.2086,0.2081,0.2097,0.2104,0.221,0.221,0.221,0.2162,0.2157,0.2154,0,0,0,0,0,0,0.1553,0.1638,0.166,0.1702,0.175,0.1826,0.1842,0.1872,0.1919,0.1922,0.1983,0.1999,0.204,0.2077,0.207,0.2135,0.2151,0.2154,0.2109,0.2106,0.2102,0.2093,0.2113,0,0,0,0,0,0.1545,0.1583,0.1656,0.1686,0.1709,0.1771,0.1798,0.1832,0.1885,0.1906,0.1956,0.2007,0.2052,0.2081,0.2127,0.2165,0.2183,0.2178,0.2174,0.2171,0.2173,0.2196,0.2195,0.221,0.221,0.221,0,0,0.1529,0.1581,0.1601,0.1676,0.1717,0.1755,0.1788,0.1827,0.1857,0.1912,0.1959,0.1998,0.2059,0.2101,0.2123,0.2133,0.2173,0.2171,0.2168,0.2172,0.2196,0.2195,0.2193,0.221,0.221,0.221,0,0,0.152,0.1563,0.1592,0.1633,0.1694,0.1735,0.1742,0.1813,0.184,0.1888,0.193,0.1967,0.2043,0.2085,0.2116,0.2121,0.2152,0.2134,0.2117,0.2139,0.2138,0.2137,0.2139,0.2139,0.2136,0.2136,0.2136,0,0.1494,0.1552,0.1604,0.1641,0.1673,0.1723,0.1753,0.179,0.1864,0.1885,0.1895,0.1992,0.2037,0.209,0.2091,0.2114,0.2124,0.2127,0.2134,0.2133,0.2134,0.2136,0.2137,0.2133,0.2134,0.2134,0.2134,0,0.1516,0.1556,0.1573,0.1642,0.1675,0.1708,0.1766,0.1793,0.1824,0.1864,0.1912,0.1967,0.2025,0.204,0.2071,0.2097,0.2102,0.2122,0.214,0.2129,0.2132,0.2134,0.213,0.2131,0.2131,0.2132,0,0,0.1476,0.1572,0.1577,0.1608,0.168,0.1712,0.1748,0.1803,0.1825,0.1874,0.1906,0.1969,0.1988,0.2023,0.2059,0.2078,0.2079,0.2097,0.2099,0.2091,0.2111,0.2095,0.2095,0.2099,0.2099,0.21,0.2106,0,0.1478,0.1543,0.159,0.1638,0.1676,0.1723,0.1755,0.1802,0.184,0.1878,0.1921,0.1964,0.1986,0.2007,0.2028,0.2074,0.2084,0.2074,0.213,0.2131,0.2113,0.2097,0.2081,0.2084,0.2107,0.2108,0.2108,0,0.1489,0.1535,0.1586,0.1652,0.167,0.1696,0.175,0.1786,0.184,0.1867,0.1905,0.1942,0.1982,0.1996,0.2052,0.2045,0.207,0.2096,0.2097,0.2105,0.2119,0.2105,0.2087,0.2087,0.211,0.211,0.211,0,0.1455,0.1529,0.1569,0.1595,0.1673,0.1691,0.1724,0.1779,0.1809,0.1856,0.1876,0.1927,0.1956,0.1995,0.2045,0.205,0.2096,0.2114,0.212,0.2118,0.2128,0.2127,0.2114,0.2143,0.2143,0.2143,0.2143,0,0.1452,0.1481,0.1555,0.1579,0.1613,0.1667,0.17,0.1738,0.1785,0.1819,0.1863,0.1894,0.1957,0.1996,0.2035,0.2076,0.2088,0.2111,0.2121,0.2107,0.2104,0.2125,0.2126,0.2144,0.2143,0.2143,0.2143,0,0.142,0.147,0.1517,0.1586,0.1604,0.1626,0.1687,0.1713,0.1752,0.1794,0.1807,0.187,0.1917,0.197,0.2035,0.2062,0.21,0.2114,0.2081,0.2087,0.2089,0.2088,0.209,0.2093,0.2119,0.2119,0.2119,0,0.1415,0.1438,0.151,0.1534,0.1566,0.1606,0.1636,0.169,0.172,0.1783,0.1801,0.1851,0.1894,0.1967,0.202,0.207,0.2086,0.2083,0.2094,0.2079,0.2086,0.2084,0.2087,0.208,0.2079,0.2079,0.2079,0,0.1401,0.1424,0.1465,0.1515,0.1549,0.1591,0.1635,0.1653,0.1716,0.1747,0.1795,0.1828,0.1894,0.1944,0.2,0.2035,0.2067,0.2074,0.2078,0.2065,0.2044,0.2055,0.2073,0.2074,0.2075,0.2075,0.2075,0.2076,0.1383,0.1405,0.1459,0.1503,0.1541,0.1581,0.1608,0.1651,0.1692,0.1749,0.1778,0.1825,0.1879,0.1958,0.1992,0.203,0.2041,0.2047,0.2048,0.2049,0.2045,0.2037,0.2041,0.2041,0.2041,0.2041,0.2041,0,0.1371,0.1407,0.1447,0.1506,0.1541,0.1567,0.1617,0.1644,0.1685,0.1732,0.1773,0.1828,0.1875,0.1931,0.1982,0.2002,0.2018,0.2014,0.2013,0.2021,0.2033,0.2024,0.2,0.2,0.2,0.2,0.2,0.2,0.1369,0.1408,0.1438,0.1497,0.1534,0.1579,0.1606,0.1642,0.168,0.1739,0.1778,0.1813,0.1864,0.1919,0.1964,0.1979,0.1996,0.1987,0.2007,0.2017,0.202,0.2023,0.2016,0.199,0.199,0.1992,0.1992,0.1992]}]]